Location: Grange Rosano
(44.4500°N, 6.9667°E)
Time: 12:57:57
(UTC+00:00)

ADEOS Rocket - Visible Passes

Search period start: 26 September 2022 00:00
Search period end: 06 October 2022 00:00
Orbit: 858 x 1307 km, 98.8° (Epoch: 25 September)

Date Brightness Start Highest point End Pass type
(mag) Time Alt. Az. Time Alt. Az. Time Alt. Az.
26 Sep 5.2 21:49:08 15° N 21:49:08 15° N 21:50:03 10° N visible
27 Sep 5.3 20:59:26 11° NNE 20:59:26 11° NNE 20:59:49 10° NNE visible
27 Sep 5.5 22:46:22 12° NNW 22:46:22 12° NNW 22:46:44 10° NNW visible
28 Sep 5.3 21:56:40 14° N 21:56:40 14° N 21:57:25 10° N visible
29 Sep 5.3 21:06:58 11° NNE 21:06:58 11° NNE 21:07:22 10° NNE visible
29 Sep 5.7 22:53:55 10° NNW 22:53:55 10° NNW 22:53:58 10° NNW visible
30 Sep 5.4 22:04:13 13° N 22:04:13 13° N 22:04:46 10° N visible
01 Oct 5.4 21:14:30 11° NNE 21:14:30 11° NNE 21:14:53 10° N visible
02 Oct 5.5 22:11:45 12° N 22:11:45 12° N 22:12:06 10° N visible
03 Oct 5.4 21:22:02 11° N 21:22:02 11° N 21:22:21 10° N visible
04 Oct 5.6 22:19:16 11° N 22:19:16 11° N 22:19:25 10° N visible
05 Oct 5.5 21:29:34 11° N 21:29:34 11° N 21:29:49 10° N visible
